Regional Weather Roundup
Issued by NWS

Home | Current Version | Previous Version | Text Only | Print | Product List | Glossary Off
Versions: 1 2 3 4 5 6 7 8 9 10 11 12 13 14 15 16 17 18 19 20 21 22 23 24 25 26 27 28 29 30 31 32 33 34 35 36 37 38 39 40 41 42 43 44 45 46 47 48 49 50

542
ASUS43 KFSD 231810
RWRSD

WEATHER ROUNDUP FOR SOUTH DAKOTA
NATIONAL WEATHER SERVICE SIOUX FALLS SD
100 PM CDT TUE MAY 23 2017

NOTE: "FAIR" INDICATES FEW OR NO CLOUDS BELOW 12,000 FEET WITH NO
SIGNIFICANT WEATHER AND/OR OBSTRUCTIONS TO VISIBILITY.


SDZ001>005-009-010-012>017-231900-
NORTHWEST AND NORTH CENTRAL SOUTH DAKOTA

CITY           SKY/WX    TMP DP  RH WIND       PRES   REMARKS
BUFFALO          N/A     63  34  33 N18G25    30.07F
FAITH            N/A     57  34  41 N25G35    30.08F
MOBRIDGE       CLOUDY    54  38  54 N21G28    30.04R
$$

SDZ012>016-024>037-041>051-057-063-072>074-231900-
SOUTHWEST AND SOUTH CENTRAL SOUTH DAKOTA

CITY           SKY/WX    TMP DP  RH WIND       PRES   REMARKS
RAPID CTY ARPT PTSUNNY   60  35  39 N22G33    30.11F
PIERRE         LGT RAIN  55  38  52 N21G30    30.02F
CUSTER         PTSUNNY   51  24  34 NW12G21   30.14F
ELLSWORTH AFB  MOSUNNY   60  34  38 N21G29    30.11
PHILIP         CLOUDY    59  36  42 N28G35    30.06F
PINE RIDGE     MOSUNNY   60  37  42 N22G29    30.11F
SPEARFISH      FAIR      57  37  47 NW12G21   30.16F
WINNER         CLOUDY    53  43  68 N23       30.02F
$$

SDZ004>011-016>023-039-040-231900-
NORTHEAST SOUTH DAKOTA

CITY           SKY/WX    TMP DP  RH WIND       PRES   REMARKS
ABERDEEN       CLOUDY    53  42  66 N22G28    29.99R
WATERTOWN      CLOUDY    51  46  83 N21G28    29.89F
BROOKINGS      LGT RAIN  51  46  83 N17       29.88F
SISSETON         N/A     52  50  93 N21G28    29.92S
$$

SDZ017-020-022-023-036>040-048>070-231900-
SOUTHEAST SOUTH DAKOTA

CITY           SKY/WX    TMP DP  RH WIND       PRES   REMARKS
SIOUX FALLS    CLOUDY    54  48  80 N17       29.88F
HURON          CLOUDY    53  45  74 N20       29.95S
CHAMBERLAIN    CLOUDY    53  42  65 NW16G22   30.00S
MITCHELL       LGT RAIN  51  47  86 N21G26    29.95S
YANKTON        CLOUDY    51  47  86 NW20      29.91S
$$

ABBREVIATIONS USED IN REMARKS
   TC - TEMPERATURE IN CELSIUS
  WCI - WIND CHILL INDEX
   HX - HEAT INDEX
  VSB - VISIBILITY





USA.gov is the U.S. government's official web portal to all federal, state and local government web resources and services.